DW5080 Weather Reports


Display with metric or nautical units.
time (UTC)temp
F
wind
direction
speed
MPH
gust
MPH
rain 1hr
in
rain 24hr
in
rain mn
in
humidity
%
barometer
mb
20260505062513 59 189 5.0 12.0 0.00 0.00 0.00 60 1006.3
20260505061613 59 185 3.0 11.0 0.00 0.00 0.00 60 1006.3
20260505055813 59 186 2.0 6.0 0.00 0.00 0.00 60 1006.4
20260505054913 59 175 2.0 8.0 0.00 0.00 0.00 60 1006.5
20260505054013 58 179 2.0 5.0 0.00 0.00 0.00 60 1006.4
20260505053113 59 182 3.0 7.0 0.00 0.00 0.00 60 1006.4
20260505052213 59 172 2.0 7.0 0.00 0.00 0.00 60 1006.5
20260505051313 59 184 1.0 6.0 0.00 0.00 0.00 60 1006.6
20260505050413 58 162 1.0 6.0 0.00 0.00 0.00 61 1006.6
20260505041013 58 170 1.0 6.0 0.00 0.00 0.00 60 1006.3
20260505040113 59 166 1.0 7.0 0.00 0.00 0.00 59 1006.3
20260505035213 59 152 1.0 8.0 0.00 0.00 0.00 59 1006.2
20260505034313 59 170 2.0 7.0 0.00 0.00 0.00 58 1006.2
20260505033413 60 172 2.0 6.0 0.00 0.00 0.00 57 1006.2
20260505032513 60 175 3.0 7.0 0.00 0.00 0.00 57 1006.2
20260505031613 61 171 4.0 9.0 0.00 0.00 0.00 56 1006.3
20260505030713 61 177 4.0 8.0 0.00 0.00 0.00 55 1006.3
20260505025813 61 184 5.0 12.0 0.00 0.00 0.00 54 1006.3
20260505024913 61 178 5.0 13.0 0.00 0.00 0.00 54 1006.4
20260505024013 61 178 5.0 14.0 0.00 0.00 0.00 54 1006.5
20260505022213 61 173 4.0 9.0 0.00 0.00 0.00 53 1006.6
20260505021313 61 185 5.0 11.0 0.00 0.00 0.00 53 1006.6
20260505020413 62 181 4.0 12.0 0.00 0.00 0.00 53 1006.6
20260505014613 62 165 3.0 9.0 0.00 0.00 0.00 51 1006.4
20260505013713 62 171 4.0 11.0 0.00 0.00 0.00 51 1006.4
20260505012813 62 177 3.0 10.0 0.00 0.00 0.00 50 1006.3
20260505011913 63 169 4.0 9.0 0.00 0.00 0.00 50 1006.3
20260505011013 63 179 4.0 10.0 0.00 0.00 0.00 49 1006.2
20260505010113 63 185 5.0 10.0 0.00 0.00 0.00 49 1006.1
20260505005213 64 181 6.0 11.0 0.00 0.00 0.00 49 1006.1
20260505004313 64 179 6.0 12.0 0.00 0.00 0.00 48 1006.0
20260505002513 64 185 5.0 12.0 0.00 0.00 0.00 48 1005.9
20260505001613 64 177 5.0 10.0 0.00 0.00 0.00 47 1005.7
20260504235813 65 179 5.0 12.0 0.00 0.00 0.00 46 1005.6
20260504234913 65 173 5.0 10.0 0.00 0.00 0.00 46 1005.6
20260504234013 66 177 6.0 8.0 0.00 0.00 0.00 45 1005.5
20260504233113 66 182 8.0 17.0 0.00 0.00 0.00 44 1005.4
20260504232213 67 179 7.0 18.0 0.00 0.00 0.00 43 1005.4
20260504231313 67 184 7.0 12.0 0.00 0.00 0.00 43 1005.5
20260504230413 68 183 5.0 16.0 0.00 0.00 0.00 42 1005.3
20260504225513 68 190 5.0 13.0 0.00 0.00 0.00 41 1005.2
20260504224613 68 187 5.0 13.0 0.00 0.00 0.00 41 1005.2
20260504221913 68 196 7.0 16.0 0.00 0.00 0.00 40 1005.2
20260504221013 69 178 5.0 14.0 0.00 0.00 0.00 40 1005.2
20260504214313 69 186 7.0 13.0 0.00 0.00 0.00 41 1005.3
20260504213413 68 204 7.0 12.0 0.00 0.00 0.00 42 1005.3
20260504212513 68 198 6.0 14.0 0.00 0.00 0.00 42 1005.2
20260504211613 68 208 6.0 13.0 0.00 0.00 0.00 42 1005.4
20260504210713 68 199 8.0 19.0 0.00 0.00 0.00 42 1005.6
20260504205813 68 205 8.0 13.0 0.00 0.00 0.00 42 1005.6
20260504204013 68 202 8.0 17.0 0.00 0.00 0.00 43 1005.9
20260504203113 68 218 6.0 20.0 0.00 0.00 0.00 42 1006.0
20260504202213 68 199 8.0 15.0 0.00 0.00 0.00 42 1005.9
20260504201313 67 197 9.0 17.0 0.00 0.00 0.00 44 1006.0
20260504200413 67 201 8.0 22.0 0.00 0.00 0.00 42 1006.3
20260504195513 68 203 8.0 22.0 0.00 0.00 0.00 43 1006.2
20260504193713 68 202 8.0 17.0 0.00 0.00 0.00 46 1006.4
20260504192813 67 190 10.0 23.0 0.00 0.00 0.00 44 1006.5
20260504191013 67 215 7.0 16.0 0.00 0.00 0.00 45 1006.7
20260504190113 66 224 8.0 17.0 0.00 0.00 0.00 45 1006.9
20260504185213 66 215 7.0 18.0 0.00 0.00 0.00 43 1006.8
20260504184313 66 224 8.0 15.0 0.00 0.00 0.00 47 1006.9
20260504183413 66 212 9.0 21.0 0.00 0.00 0.00 44 1006.9
20260504182513 66 225 7.0 20.0 0.00 0.00 0.00 44 1007.1
20260504181613 66 219 7.0 15.0 0.00 0.00 0.00 47 1007.1
20260504180713 65 207 7.0 17.0 0.00 0.00 0.00 48 1007.2
20260504174013 65 211 7.0 17.0 0.00 0.00 0.00 46 1007.2
20260504173114 65 212 7.0 17.0 0.00 0.00 0.00 48 1007.3
20260504172213 64 202 10.0 17.0 0.00 0.00 0.00 51 1007.3
20260504170413 64 219 6.0 11.0 0.00 0.00 0.00 50 1007.5
20260504160113 61 210 8.0 16.0 0.00 0.00 0.00 49 1008.4
20260504141313 55 204 6.0 19.0 0.00 0.00 0.00 51 1009.4
20260504140413 54 211 6.0 16.0 0.00 0.00 0.00 55 1009.5
20260504130113 50 209 7.0 14.0 0.00 0.00 0.00 56 1009.9
20260504110413 44 182 2.0 7.0 0.00 0.00 0.00 64 1010.2
20260504100113 43 174 0.0 1.0 0.00 0.00 0.00 64 1009.9
20260504080413 45 207 3.0 7.0 0.00 0.00 0.00 61 1010.2
20260504070113 46 219 2.0 10.0 0.00 0.00 0.00 58 1010.0